Location: Battersea Observatory
(44.4318°N, 76.3841°W)
Time: 22:04:39
(UTC-04:00)

Tiros 1 despin weight - Pass Details

Date: 23 January 2022
Orbit: 592 x 639 km, 48.2° (Epoch: 25 May)

Event Time Altitude Azimuth Distance (km) Brightness Sun altitude
Rises 18:57:53 0° 258° (WSW) 2,889 ? -20.4°
Reaches altitude 10° 19:00:11 10° 261° (W) 1,992 ? -20.8°
Maximum altitude 19:04:46 68° 344° (NNW) 679 ? -21.6°
Enters shadow 19:05:37 54° 41° (NE) 765 ? -21.8°
Drops below altitude 10° 19:09:25 10° 68° (ENE) 2,023 - -22.5°
Sets 19:11:47 0° 71° (ENE) 2,938 - -22.9°
